{"data":{"norad_id":60268,"epoch":"2026-05-25T01:06:36.038016Z","epoch_age_seconds":61199,"freshness":"FRESH","line1":"1 60268U 24131P   26145.04625044  .00001077  00000+0  48475-4 0  9992","line2":"2 60268  53.1602  57.4544 0001177  74.7137 285.3994 15.30204772103404","mean_motion":15.30204772,"eccentricity":0.0001177,"inclination_deg":53.1602,"raan_deg":57.4544,"arg_perigee_deg":74.7137,"mean_anomaly_deg":285.3994,"bstar":4.8475e-5,"rev_number":10340,"period_min":94.105052235453,"perigee_km":474.39418326297,"apogee_km":476.00745898606,"semimajor_km":6853.3378211245,"source":"CELESTRAK","updated_at":"2026-05-25T13:38:19.201047Z"}}